Back to catalog

STARLINK-32871

AliveCommunicationsVLEO
NORAD 62924·PAYLOAD·🇺🇸 United States

Launched Feb 8, 2025 from Cape Canaveral Space Force Station

Loading…

Next Passes (next 24 hours)

TLE

FreshSource: CelesTrak SupGP

Epoch: Sep 15, 2026, 02:28 UTC

1 62924C 25027T   26258.10326389  .00064189  00000+0  23251-2 0  2584
2 62924  43.0025 139.1658 0001491 276.3021 334.1513 15.27544295    13

Track STARLINK-32871 in real time with AllMySat

Download on the App Store